Voltar ao catálogo

STARLINK-31758

AtivoComunicaçõesVLEO
NORAD 59621·PAYLOAD·🇺🇸 United States

Lançado Apr 28, 2024 de Cape Canaveral Space Force Station

Loading…

Próximas Passagens (próximas 24 horas)

TLE

AtualizadoSource: CelesTrak SupGP

Época: Sep 15, 2026, 02:26 UTC

1 59621C 24080W   26258.10187500 -.00020659  00000+0 -74820-3 0  2587
2 59621  43.0009  44.3743 0001594 269.6284 141.4851 15.27591225    16

Acompanhe STARLINK-31758 em tempo real com AllMySat

Download on the App Store